星链-6090 (STARLINK-6090 )

导读

STARLINK-6090是由美国太空探索技术公司SpaceX研发的星链互联网卫星,于2023年3月29日发射升空,隶属于星链星座项目。星链项目旨在构建全球卫星互联网通信网络,该卫星承担着为全球偏远地区、海洋等传统网络覆盖盲区提供高速宽带互联网接入服务的任务,进一步扩容了星链星座的服务规模。

Basic Information
目录编号:
56095
目录名称:
STARLINK-6090
国际标识:
2023-046C
轨道中心:
EARTH
卫星名称:
星链-6090
卫星全名:
星链-6090 (STARLINK-6090 )
卫星状态:
在轨 (已飞行1256 天)
发射日期:
2023-03-29 UTC
国别 :
美国 (US)
星等 :
--
Orbit Information
数据来源 国际轨道数据 AOE轨道数据
星历时间 2026-09-04T18:45:27+0800
23小时前
查看轨道信息
2026-09-04T12:00:00+0800
1天前
查看轨道信息
半长轴 6861.199km 6861.218km
偏心率 0.0000955 0.000021
轨道倾角 43.001° 43.001°
近地点辐角 246.248° 294.212°
升交点赤经 231.746° 233.338°
平近点角 113.827° 315.621°
近地点 482.406km 482.936km
远地点 483.718km 483.226km
周期 94.267分钟 94.267分钟
每日圈数 15.275758 15.275695
Detailed Information
固有亮度:
5
最大亮度:
2.5
卫星平台:
Starlink v1.5
覆盖范围:
全球
运营商:
太空探索技术公司
运营商所在国:
美国
制造商(研发单位):
太空探索技术公司
制造商所在国:
美国
使用方式:
暂无
Satellite Introduction
星链(Starlink)计划是由太空探索技术公司(SpaceX)提出的一个巨型低轨卫星互联网星座项目,计划在2019年至2024年间在太空搭建由约1.2万颗卫星组成的“星链”网络,其中1584颗将部署在地球上空550千米处的近地轨道,并从2020年开始工作。该卫星仍在工作。
2D Orbit Map
3D Orbit Map
Orbit Altitude Analysis Chart
Orbit Inclination Analysis Chart
Orbit Comprehensive Analysis Chart
View Comprehensive Chart
Conjunction Data List
Event ID Objects TCA Miss Dist (km) Collision Risk Probability Collision Risk Index (CRI) Action
CDM_260907-110205-609506-311821
2026-09-07T
11:02:07+0000
0.298 km
中距离
4.34571E-4 高风险 0.88
CDM_260907-123605-609506-311821
2026-09-07T
12:36:16+0000
1.909 km
极远距离
2.521453E-6 低风险 0.43
CDM_260907-092705-609506-311821
2026-09-07T
09:27:58+0000
2.409 km
极远距离
1.491074E-6 低风险 0.38
CDM_260905-192005-609506-409221
OBJECT F (64092)
2026-09-05T
19:20:16+0000
2.764 km
极远距离
1.322107E-6 低风险 0.37
CDM_260907-231605-609506-346121
2026-09-07T
23:16:56+0000
2.834 km
极远距离
1.006158E-6 低风险 0.35